Погода в Манандзари

Мадагаскар     21°13′58″S   48°21′06″E
темп.,
°C
ветер,
м/с
пор.,
м/с
влажн.,
%
обл.,
%
осадки,
мм/ч
давл.,
гПа
погр.,
м
10 августа, ср
ср1000:00+17з119620 0.4 102552
03:00+17юз1297100 3.3 102398
06:00+19в2791100 5.5 1024427
09:00+19в3786100 6.6 1026489
12:00+20в2580100 0.4 1025357
15:00+21в257563 0.9 1024472
18:00+18в258759 0.8 1025245
21:00+18в258827 1.5 1026225
11 августа, чт
чт1100:00+17вюв02888 0.2 1026200
03:00+16з129228 0.6 102573
06:00+15з129234 0.4 102682
09:00+19зюз128529 0.7 1027269
12:00+20всв128466 1.3 1025283
15:00+22в24711 1.9 10231041
18:00+18в248999 0.5 1024168
21:00+18всв149397 2.9 1026183
12 августа, пт
пт1200:00+18с139430 2.4 1025159
03:00+16сз119637 3.8 102480
06:00+16з129744 1.1 102488
09:00+18зюз129598 1.9 1025136
12:00+22в237341 1.1 1023784
15:00+23всв346520 1.4 1022930
18:00+19ссв24890 0.1 1022150
21:00+17сз12958 0.1 102346
13 августа, сб
сб1300:00+17сз129611 0.2 102346
03:00+17зсз129347 0.3 102276
06:00+16з119254 0.0 102244
09:00+21сз127430 0.1 1023298
12:00+24в335937 0.0 10211366
15:00+23всв34656 0.1 1019795
18:00+19св26850 0.0 1020245
21:00+18с259318 0.1 1021170
14 августа, вс
вс1400:00+17ссз25957 0.3 1021159
03:00+17с259614 0.3 1019117
06:00+16ссз239717 0.0 102082
09:00+22ссв36735 0.1 1021699
12:00+24св466270 0.1 10181320
15:00+23св47705 0.1 1016866
18:00+20ссв410811 0.0 1017624
21:00+18с25920 0.0 1019180